User: anonymous   Login
Location: Unspecified
(0.0000°N, 0.0000°E)
Time: 07:11:11
(UTC+00:00)
Language:

USA 269 - Orbit

View from above orbital plane
View from above orbital plane
View from above satellite
View from above satellite

Ground track
Ground track

The orbit data is extracted from the following two-line orbital elements,

1 41724U 16047A   18172.19863829 0.00000000  00000-0  00000-0 0    04
2 41724   4.1424 328.9638 0029071 283.5799  76.1021  1.00743851    02
Epoch (UTC): 21 June 2018 04:46:02
Eccentricity: 0.0029071
inclination: 4.1424°
perigee height: 35532 km
apogee height: 35776 km
right ascension of ascending node: 328.9638°
argument of perigee: 283.5799°
revolutions per day: 1.00743851
mean anomaly at epoch: 76.1021°
orbit number at epoch: 0

The dashed part of the orbit path shows where the satellite is in the earth's shadow,  

DLR